User: anonymous   Login
Location: Unspecified
(0.0000°N, 0.0000°E)
Time: 03:02:50
(UTC+00:00)
Language:

ATS 1 - Orbit

View from above orbital plane
View from above orbital plane
View from above satellite
View from above satellite

Ground track
Ground track

The orbit data is extracted from the following two-line orbital elements,

1  2608U 66110A   18267.84935705 -.00000056 +00000-0 +00000-0 0  9997
2  2608 001.9415 299.6160 0006280 285.1326 251.8129 01.00288707106484
Epoch (UTC): 24 September 2018 20:23:04
Eccentricity: 0.0006280
inclination: 1.9415°
perigee height: 35755 km
apogee height: 35808 km
right ascension of ascending node: 299.6160°
argument of perigee: 285.1326°
revolutions per day: 1.00288707
mean anomaly at epoch: 251.8129°
orbit number at epoch: 10648

The dashed part of the orbit path shows where the satellite is in the earth's shadow,  

DLR